• Em Portugal
  • Lista de países
  • Para 7 dias
  • Temperatura da água
  • Mapas de satélite
  • Mapa do tempo
  • Widgets de tempo
  • user-avatar
    Iniciar Sessão

    Previsão horária em Monte Carlo

    Hoje, 21 Fevereiro, Quarta-feira

    Tempo Temperatura Precipitação Vento Pressão Humidade
    00:00 +2°C° 0,2 mm 5 m/s 741 mmHg 71%
    01:00 +2°C° 0,2 mm 6 m/s 741 mmHg 72%
    02:00 +2°C° 0,2 mm 7 m/s 741 mmHg 73%
    03:00 +2°C° 0,2 mm 7 m/s 741 mmHg 75%
    04:00 +1°C° 0,1 mm 8 m/s 741 mmHg 74%
    05:00 +1°C° 0,1 mm 8 m/s 741 mmHg 73%
    06:00 +1°C° 0,1 mm 8 m/s 741 mmHg 72%
    07:00 +2°C° 0,1 mm 8 m/s 741 mmHg 68%
    08:00 +3°C° 0,1 mm 9 m/s 741 mmHg 64%
    09:00 +3°C° 0,1 mm 9 m/s 742 mmHg 59%
    10:00 +5°C° 0,1 mm 9 m/s 742 mmHg 55%
    11:00 +6°C° 0,1 mm 9 m/s 742 mmHg 50%
    12:00 +7°C° 0,1 mm 9 m/s 742 mmHg 46%
    13:00 +7°C° 0 mm 8 m/s 742 mmHg 45%
    14:00 +8°C° 0 mm 7 m/s 741 mmHg 44%
    15:00 +8°C° 0 mm 7 m/s 741 mmHg 44%
    16:00 +6°C° 0 mm 7 m/s 741 mmHg 49%
    17:00 +4°C° 0 mm 6 m/s 741 mmHg 54%
    18:00 +3°C° 0 mm 6 m/s 741 mmHg 60%
    19:00 +3°C° 0 mm 6 m/s 741 mmHg 61%
    20:00 +3°C° 0 mm 6 m/s 741 mmHg 62%
    21:00 +2°C° 0 mm 7 m/s 741 mmHg 63%
    22:00 +2°C° 0 mm 7 m/s 741 mmHg 62%
    23:00 +2°C° 0 mm 7 m/s 741 mmHg 61%

    Amanhã, 22 Fevereiro, Quinta-feira

    Tempo Temperatura Precipitação Vento Pressão Humidade
    00:00 +2°C° 0 mm 6 m/s 741 mmHg 61%
    01:00 +2°C° 0 mm 6 m/s 740 mmHg 59%
    02:00 +2°C° 0 mm 6 m/s 740 mmHg 58%
    03:00 +2°C° 0 mm 6 m/s 739 mmHg 57%
    04:00 +2°C° 0 mm 6 m/s 739 mmHg 58%
    05:00 +2°C° 0 mm 5 m/s 739 mmHg 58%
    06:00 +2°C° 0 mm 5 m/s 739 mmHg 59%
    07:00 +3°C° 0,1 mm 5 m/s 739 mmHg 57%
    08:00 +5°C° 0,1 mm 5 m/s 739 mmHg 55%
    09:00 +6°C° 0,1 mm 5 m/s 739 mmHg 53%
    10:00 +7°C° 0,1 mm 6 m/s 739 mmHg 52%
    11:00 +7°C° 0,1 mm 6 m/s 739 mmHg 51%
    12:00 +8°C° 0,1 mm 6 m/s 739 mmHg 51%
    13:00 +8°C° 0,1 mm 6 m/s 739 mmHg 53%
    14:00 +7°C° 0,1 mm 6 m/s 739 mmHg 55%
    15:00 +7°C° 0,1 mm 6 m/s 739 mmHg 57%
    16:00 +5°C° 0,1 mm 6 m/s 739 mmHg 61%
    17:00 +4°C° 0,1 mm 6 m/s 739 mmHg 66%
    18:00 +3°C° 0,1 mm 5 m/s 739 mmHg 70%
    19:00 +3°C° 0,3 mm 5 m/s 740 mmHg 71%
    20:00 +3°C° 0,3 mm 5 m/s 740 mmHg 72%
    21:00 +4°C° 0,3 mm 4 m/s 740 mmHg 73%
    22:00 +4°C° 0,3 mm 4 m/s 740 mmHg 72%
    23:00 +4°C° 0,3 mm 4 m/s 740 mmHg 72%

    Depois de amanhã, 23 Fevereiro, Sexta-feira

    Tempo Temperatura Precipitação Vento Pressão Humidade
    00:00 +3°C° 0,3 mm 4 m/s 740 mmHg 72%
    01:00 +3°C° 0,1 mm 4 m/s 740 mmHg 72%
    02:00 +3°C° 0,1 mm 4 m/s 740 mmHg 71%
    03:00 +2°C° 0,1 mm 5 m/s 739 mmHg 71%
    04:00 +2°C° 0 mm 5 m/s 740 mmHg 71%
    05:00 +1°C° 0 mm 5 m/s 740 mmHg 70%
    06:00 +1°C° 0 mm 5 m/s 740 mmHg 69%
    07:00 +3°C° 0 mm 5 m/s 740 mmHg 65%
    08:00 +5°C° 0 mm 5 m/s 740 mmHg 60%
    09:00 +7°C° 0 mm 5 m/s 741 mmHg 56%
    10:00 +8°C° 0,1 mm 5 m/s 741 mmHg 55%
    11:00 +8°C° 0,1 mm 5 m/s 741 mmHg 55%
    12:00 +9°C° 0,1 mm 5 m/s 741 mmHg 54%
    13:00 +9°C° 0,1 mm 5 m/s 741 mmHg 56%
    14:00 +8°C° 0,1 mm 5 m/s 741 mmHg 57%
    15:00 +8°C° 0,1 mm 5 m/s 741 mmHg 59%
    16:00 +7°C° 0 mm 5 m/s 741 mmHg 63%
    17:00 +6°C° 0 mm 5 m/s 742 mmHg 68%
    18:00 +5°C° 0 mm 5 m/s 742 mmHg 72%
    19:00 +5°C° 0 mm 5 m/s 742 mmHg 73%
    20:00 +3°C° 0 mm 5 m/s 743 mmHg 74%
    21:00 +4°C° 0 mm 4 m/s 743 mmHg 74%
    22:00 +4°C° 0 mm 4 m/s 743 mmHg 74%
    23:00 +3°C° 0 mm 5 m/s 743 mmHg 74%

    24 Fevereiro, Sábado

    Tempo Temperatura Precipitação Vento Pressão Humidade
    00:00 +3°C° 0 mm 5 m/s 743 mmHg 73%
    01:00 +4°C° 0,1 mm 4 m/s 742 mmHg 72%
    02:00 +4°C° 0,1 mm 4 m/s 742 mmHg 72%
    03:00 +4°C° 0,1 mm 4 m/s 742 mmHg 71%
    04:00 +4°C° 0,4 mm 4 m/s 742 mmHg 70%
    05:00 +5°C° 0,4 mm 3 m/s 742 mmHg 70%
    06:00 +5°C° 0,4 mm 3 m/s 742 mmHg 70%
    07:00 +7°C° 0,8 mm 3 m/s 742 mmHg 69%
    08:00 +7°C° 0,8 mm 3 m/s 742 mmHg 67%
    09:00 +8°C° 0,8 mm 2 m/s 742 mmHg 66%
    10:00 +8°C° 1,2 mm 3 m/s 742 mmHg 66%
    11:00 +9°C° 1,2 mm 3 m/s 743 mmHg 67%
    12:00 +9°C° 1,2 mm 3 m/s 743 mmHg 67%
    13:00 +9°C° 0,9 mm 3 m/s 743 mmHg 69%
    14:00 +8°C° 0,9 mm 4 m/s 743 mmHg 71%
    15:00 +7°C° 0,9 mm 4 m/s 743 mmHg 72%
    16:00 +7°C° 0,4 mm 4 m/s 743 mmHg 74%
    17:00 +6°C° 0,4 mm 4 m/s 743 mmHg 76%
    18:00 +6°C° 0,4 mm 4 m/s 744 mmHg 78%
    19:00 +6°C° 0,2 mm 5 m/s 744 mmHg 78%
    20:00 +6°C° 0,2 mm 5 m/s 744 mmHg 78%
    21:00 +6°C° 0,2 mm 5 m/s 745 mmHg 79%
    22:00 +5°C° 0,1 mm 5 m/s 744 mmHg 79%
    23:00 +5°C° 0,1 mm 5 m/s 744 mmHg 79%

    25 Fevereiro, Domingo

    Tempo Temperatura Precipitação Vento Pressão Humidade
    00:00 +5°C° 0,1 mm 5 m/s 744 mmHg 79%
    01:00 +5°C° 0,1 mm 4 m/s 744 mmHg 79%
    02:00 +5°C° 0,1 mm 4 m/s 744 mmHg 79%
    03:00 +4°C° 0,1 mm 4 m/s 743 mmHg 80%
    04:00 +4°C° 0,1 mm 3 m/s 743 mmHg 79%
    05:00 +4°C° 0,1 mm 3 m/s 743 mmHg 79%
    06:00 +4°C° 0,1 mm 3 m/s 743 mmHg 79%
    07:00 +5°C° 0 mm 3 m/s 743 mmHg 76%
    08:00 +8°C° 0 mm 2 m/s 743 mmHg 73%
    09:00 +9°C° 0 mm 2 m/s 743 mmHg 70%
    10:00 +10°C° 0,1 mm 2 m/s 743 mmHg 70%
    11:00 +10°C° 0,1 mm 3 m/s 743 mmHg 70%
    12:00 +10°C° 0,1 mm 3 m/s 743 mmHg 70%
    13:00 +10°C° 0,2 mm 3 m/s 743 mmHg 72%
    14:00 +10°C° 0,2 mm 4 m/s 742 mmHg 75%
    15:00 +8°C° 0,2 mm 4 m/s 742 mmHg 77%
    16:00 +8°C° 0,1 mm 5 m/s 742 mmHg 82%
    17:00 +7°C° 0,1 mm 5 m/s 743 mmHg 86%
    18:00 +5°C° 0,1 mm 6 m/s 743 mmHg 90%
    19:00 +4°C° 0,3 mm 7 m/s 743 mmHg 89%
    20:00 +4°C° 0,3 mm 8 m/s 744 mmHg 88%
    21:00 +2°C° 0,3 mm 9 m/s 744 mmHg 87%
    22:00 +2°C° 0,2 mm 9 m/s 744 mmHg 86%
    23:00 +2°C° 0,2 mm 9 m/s 745 mmHg 85%

    26 Fevereiro, Segunda-feira

    Tempo Temperatura Precipitação Vento Pressão Humidade
    00:00 +1°C° 0,2 mm 9 m/s 745 mmHg 83%
    01:00 +1°C° 0,1 mm 9 m/s 745 mmHg 83%
    02:00 0°C° 0,1 mm 9 m/s 745 mmHg 83%
    03:00 0°C° 0,1 mm 9 m/s 745 mmHg 82%
    04:00 0°C° 0 mm 9 m/s 745 mmHg 82%
    05:00 -1°C° 0 mm 9 m/s 746 mmHg 82%
    06:00 -1°C° 0 mm 9 m/s 746 mmHg 81%
    07:00 -1°C° 0,1 mm 9 m/s 746 mmHg 79%
    08:00 0°C° 0,1 mm 9 m/s 746 mmHg 77%
    09:00 0°C° 0,1 mm 9 m/s 747 mmHg 75%
    10:00 0°C° 0,1 mm 8 m/s 747 mmHg 74%
    11:00 0°C° 0,1 mm 8 m/s 747 mmHg 74%
    12:00 +1°C° 0,1 mm 8 m/s 747 mmHg 73%
    13:00 0°C° 0,1 mm 8 m/s 746 mmHg 75%
    14:00 0°C° 0,1 mm 7 m/s 746 mmHg 76%
    15:00 -1°C° 0,1 mm 7 m/s 746 mmHg 77%
    16:00 -1°C° 0,1 mm 7 m/s 746 mmHg 80%
    17:00 -2°C° 0,1 mm 6 m/s 746 mmHg 82%
    18:00 -2°C° 0,1 mm 6 m/s 746 mmHg 84%
    19:00 -3°C° 0,1 mm 6 m/s 746 mmHg 85%
    20:00 -3°C° 0,1 mm 6 m/s 746 mmHg 85%
    21:00 -3°C° 0,1 mm 7 m/s 747 mmHg 85%
    22:00 -3°C° 0,2 mm 7 m/s 746 mmHg 86%
    23:00 -3°C° 0,2 mm 7 m/s 746 mmHg 87%
    Mostrar mais